{"data":{"norad_id":53214,"epoch":"2026-09-19T23:00:01.948032Z","epoch_age_seconds":119064,"freshness":"FRESH","line1":"1 53214U 22084AB  26262.95835588  .00000290  00000+0  11301-4 0  9990","line2":"2 53214  97.2843 317.7086 0001602 104.4045 255.7376 15.33433914228608","mean_motion":15.33433914,"eccentricity":0.0001602,"inclination_deg":97.2843,"raan_deg":317.7086,"arg_perigee_deg":104.4045,"mean_anomaly_deg":255.7376,"bstar":1.1301e-5,"rev_number":22860,"period_min":93.906883554161,"perigee_km":464.47979596514,"apogee_km":466.67252166122,"semimajor_km":6843.7131588132,"source":"CELESTRAK","updated_at":"2026-09-20T09:00:40.193626Z"}}